一网星座-0088星 (ONEWEB-0088 )

导读

ONEWEB-0088是英国OneWeb低轨宽带星座的卫星,于北京时间2020年3月21日发射入轨,运行在1200公里、倾角87.9度的近地轨道。该卫星配备Ku和Ka波段天线,设计寿命超7年,属于OneWeb第三批组网卫星,旨在为全球提供无缝互联网接入,服务航空、海事、应急通信等领域,是OneWeb全球低轨卫星互联网建设的重要组成部分。

基本信息
目录编号:
45457
目录名称:
ONEWEB-0088
国际标识:
2020-020AK
轨道中心:
EARTH
卫星名称:
一网星座-0088星
卫星全名:
一网星座-0088星 (ONEWEB-0088 )
卫星状态:
在轨 (已飞行2365 天)
发射日期:
2020-03-21 UTC
国别 :
英国 (GB)
星等 :
--
该卫星已列入 空间交会检测服务 Space Conjunction Data Service (SCDS) ,当前飞行风险评估等级: 无高风险
轨道信息
数据来源 国际轨道数据
星历时间: 2026-09-11T01:38:00+0800
17小时前
查看轨道信息
半长轴: 7595.817km
偏心率: 0.0001899
轨道倾角: 87.898°
近地点辐角 113.495°
升交点赤经 4.036°
平近点角 246.638°
近地点: 1216.237km
远地点: 1219.123km
周期: 109.805分钟
每日圈数: 13.114177
详细信息
平衡模式:
三轴稳定
覆盖范围:
全球
运营商:
一网卫星公司
运营商所在国:
英国
制造商(研发单位):
一网卫星公司
制造商所在国:
英国
使用方式:
暂无
卫星简介
OneWeb卫星网络由648颗重约125公斤的微型卫星组成,运行在1200公里的轨道上。 每颗卫星都能够提供至少每秒8千兆位的吞吐量,以使用其高吞吐量的Ku频段有效载荷为家庭和移动平台提供互联网接入。该卫星仍在工作。
2D轨道图
3D轨道图
轨道高度分析图
轨道倾角分析图
轨道综合分析图
查看轨道综合分析图
与全量物体交会距离演化趋势
与全量物体交会风险概率演化趋势